Location: Earls Croome
(52.0667°N, 2.2000°W)
Time: 07:26:48
(UTC+00:00)

NOSS 3-4 (A) - Pass Details

Date: 17 November 2019
Orbit: 907 x 1306 km, 63.4° (Epoch: 02 December)

Event Time Altitude Azimuth Distance (km) Brightness Sun altitude
Exits shadow 06:28:32 10° 305° (NW) 2,918 5.4 -9.7°
Maximum altitude 06:34:50 38° 241° (WSW) 1,692 4.5 -8.7°
Drops below altitude 10° 06:41:42 10° 176° (S) 3,179 6.5 -7.8°
Sets 06:44:46 0° 169° (S) 4,189 7.3 -7.3°
